[[{"header":{"parameterUnit":"m.s-1","parameterCategory":2,"la1":30.2991,"la2":30.254,"lo1":-89.0895,"lo2":-89.0444,"dy":0.0017,"dx":0.0017,"nx":28,"ny":28,"refTime":"2025-11-18T09:00:00:Z","depth":"0","parameterNumber":2,"parameterNumberName":"U-component_of_CURRENTS"},"data":[0,0,0,0,0,0,0,0,0,0,0,0,0,0,0,0,0,0,0,0,0,0,0,0,0,0,0,0,0,0,0,0,0,0,0,0,0,0,0,0,0,0,0,0,0,0,0,0,0,0,0,0,0,0,0,0,0,0,0.3989,0.3989,0,0.4012,0.4013,0.4013,0.3995,0.3995,0.3994,0.3994,0.3942,0.3941,0.394,0,0,0,0,0,0,0,0,0,0,0,0,0,0.3947,0.3948,0.3989,0.3989,0.399,0.4012,0.4013,0.4013,0.3995,0.3995,0.3994,0.3993,0.3942,0.3941,0.394,0,0,0,0,0,0,0,0,0,0,0,0,0,0.3966,0.3948,0.3989,0.3985,0.3985,0.4012,0.4013,0.4013,0.3996,0.3995,0.3994,0.3993,0.3943,0.3941,0.394,0.3951,0,0,0.3937,0.3936,0,0,0,0,0,0,0,0,0.3965,0.3967,0.3985,0.3985,0.3985,0.4002,0.3979,0.3989,0.3996,0.399,0.3994,0.3992,0.3957,0.3954,0.3959,0.3949,0.3946,0.3936,0.3936,0.3935,0.3935,0,0,0,0,0,0,0,0.3963,0.3966,0.3996,0.3986,0.3986,0.3989,0.399,0.3981,0.3975,0.399,0.3989,0.3995,0.3956,0.3961,0.3958,0.3946,0.3937,0.3935,0.3935,0.3934,0.3986,0.3988,0,0,0,0,0,0,0.3964,0.3965,0.3996,0.3997,0.3975,0.399,0.3992,0.3996,0.3977,0.3974,0.3996,0.3994,0.3963,0.3959,0.3956,0.3969,0.3935,0.3934,0.3933,0.3984,0.3986,0.3988,0,0,0,0,0,0,0.3963,0.3967,0.3995,0.3983,0.3987,0.3992,0.3997,0.3997,0.4003,0.3983,0.3978,0.4002,0.3962,0.3958,0.3976,0.3967,0.3934,0.3932,0.3981,0.3984,0.3987,0.3994,0,0,0,0,0,0,0.3962,0.3966,0.3969,0.3983,0.3988,0.401,0.3998,0.3998,0.4008,0.4006,0.3986,0.398,0.3961,0.3978,0.3975,0.3964,0.3932,0.3979,0.3983,0.3986,0.3991,0.3997,0.4002,0,0,0,0,0,0.396,0.3961,0.3969,0.3973,0.3991,0.401,0.4013,0.4012,0.401,0.4014,0.4022,0.3981,0.4,0.3979,0.3975,0.3963,0.3977,0.3982,0.3986,0.3989,0.3996,0.4002,0,0,0,0,0,0,0.3934,0.3961,0.3968,0.3975,0.3994,0.4008,0.401,0.4019,0.4029,0.4026,0.401,0.4006,0.4026,0.4008,0.3985,0.3998,0.3981,0.3985,0.3985,0.3991,0.3996,0.4013,0.3931,0,0,0,0,0,0.3935,0.3946,0.3972,0.3976,0.3987,0.4003,0.4011,0.4016,0.4029,0.4032,0.4026,0.4028,0.4043,0.4027,0.4042,0.4036,0.4058,0.4031,0.4036,0.4041,0.4057,0.4099,0.4109,0.4004,0.4004,0.4004,0,0,0.3924,0.3941,0.3946,0.3973,0.3985,0.4008,0.4005,0.4018,0.404,0.4024,0.4047,0.4056,0.4058,0.4068,0.4071,0.4042,0.4086,0.4047,0.4049,0.4064,0.4105,0.4115,0.4123,0.4007,0.4007,0.4006,0,0,0.3918,0.3927,0.3942,0.3962,0.399,0.4005,0.4013,0.4037,0.4048,0.4075,0.4085,0.4102,0.4099,0.4107,0.4108,0.4156,0.4135,0.4145,0.4151,0.419,0.4198,0.4206,0.4255,0.4267,0.4119,0.4119,0.4119,0,0.3906,0.3932,0.3947,0.3971,0.399,0.4007,0.4032,0.4051,0.408,0.4095,0.4082,0.4127,0.4122,0.4148,0.4167,0.4163,0.4187,0.4114,0.4194,0.4202,0.421,0.4258,0.4271,0.412,0.412,0.412,0.412,0,0.392,0.3943,0.395,0.3992,0.4012,0.4032,0.4067,0.4083,0.4096,0.4117,0.4155,0.4166,0.4183,0.4182,0.4183,0.423,0.4233,0.4214,0.4168,0.422,0.4269,0.4282,0.4122,0.4121,0.4121,0.4121,0,0,0.3885,0.3952,0.3951,0.3976,0.4027,0.4039,0.4079,0.412,0.4127,0.4162,0.4179,0.4225,0.4226,0.4235,0.4232,0.4257,0.4332,0.4251,0.4252,0.4284,0.4431,0.4355,0.4362,0.4316,0.4319,0.432,0.4445,0,0.3894,0.3942,0.3976,0.4013,0.4042,0.4073,0.4105,0.414,0.415,0.4166,0.4202,0.4222,0.4246,0.4235,0.4277,0.4317,0.4367,0.4302,0.4391,0.4395,0.4306,0.4375,0.4201,0.429,0.4458,0.446,0.4461,0,0.3898,0.3932,0.3975,0.4031,0.4043,0.406,0.4088,0.4116,0.4153,0.4165,0.4196,0.4217,0.4281,0.4275,0.4399,0.4353,0.4413,0.4445,0.445,0.4387,0.4343,0.4267,0.4308,0.4133,0.4482,0.448,0.4479,0,0.3863,0.3928,0.3959,0.3978,0.4042,0.405,0.4074,0.4105,0.4117,0.4151,0.4153,0.4234,0.4249,0.4353,0.4432,0.4421,0.4554,0.454,0.4545,0.4541,0.4417,0.4396,0.4284,0.4656,0.4656,0.4656,0.4655,0,0.386,0.3884,0.3935,0.3947,0.3963,0.4014,0.4014,0.4042,0.4067,0.4069,0.4142,0.4155,0.4268,0.4344,0.4442,0.4529,0.4574,0.4576,0.4572,0.4415,0.4394,0.4255,0.4199,0.466,0.4659,0.4658,0.4657,0,0.382,0.3863,0.3889,0.3937,0.3945,0.3943,0.3972,0.3963,0.4007,0.4001,0.4018,0.4106,0.4211,0.4325,0.4467,0.4513,0.4479,0.4642,0.4453,0.4424,0.4244,0.4197,0.4051,0.3934,0.4675,0.4674,0.4673,0,0.3809,0.3816,0.385,0.3846,0.3861,0.3869,0.3869,0.3917,0.3905,0.3968,0.3959,0.4058,0.4125,0.431,0.4396,0.4548,0.4429,0.446,0.4412,0.4223,0.4169,0.404,0.3944,0.4267,0.4263,0.426,0.4257,0,0.3764,0.3766,0.3782,0.3784,0.3773,0.3763,0.3763,0.3751,0.3794,0.3805,0.3839,0.3906,0.4072,0.4115,0.4278,0.4363,0.4199,0.4394,0.4241,0.3883,0.3694,0.3581,0.4209,0.4226,0.4229,0.4232,0.4233,0.4235,0.3708,0.3701,0.3709,0.3702,0.3692,0.3642,0.3578,0.3585,0.3559,0.352,0.3676,0.3707,0.3845,0.4051,0.4071,0.3965,0.402,0.3878,0.3859,0.3762,0.3561,0.4126,0.4099,0.4101,0.4103,0.4105,0.4107,0,0.3625,0.3629,0.3627,0.3594,0.3541,0.3559,0.349,0.3385,0.3296,0.335,0.3369,0.3464,0.35,0.3591,0.3582,0.3439,0.333,0.3332,0.3096,0.3049,0.3587,0.3474,0.3254,0.3254,0.3254,0.3254,0.3254,0.3254,0.3578,0.3554,0.3557,0.3448,0.3411,0.3246,0.3165,0.3024,0.3001,0.2912,0.2924,0.3037,0.318,0.3187,0.3013,0.2957,0.2712,0.2608,0.2609,0.296,0.3007,0.3053,0.2929,0.2598,0.2598,0.1939,0.1933,0.1929]},{"header":{"parameterUnit":"m.s-1","parameterCategory":2,"la1":30.2991,"la2":30.254,"lo1":-89.0895,"lo2":-89.0444,"dy":0.0017,"dx":0.0017,"nx":28,"ny":28,"refTime":"2025-11-18T09:00:00:Z","depth":"0","parameterNumber":3,"parameterNumberName":"V-component_of_CURRENTS"},"data":[0,0,0,0,0,0,0,0,0,0,0,0,0,0,0,0,0,0,0,0,0,0,0,0,0,0,0,0,0,0,0,0,0,0,0,0,0,0,0,0,0,0,0,0,0,0,0,0,0,0,0,0,0,0,0,0,0,0,-0.0748,-0.0748,0,-0.0777,-0.0777,-0.0778,-0.079,-0.079,-0.0789,-0.0789,-0.0809,-0.0809,-0.081,0,0,0,0,0,0,0,0,0,0,0,0,0,-0.0685,-0.0687,-0.0748,-0.0748,-0.0748,-0.0777,-0.0777,-0.0778,-0.079,-0.079,-0.0789,-0.0789,-0.0808,-0.0809,-0.081,0,0,0,0,0,0,0,0,0,0,0,0,0,-0.0714,-0.0687,-0.0748,-0.0757,-0.0758,-0.0777,-0.0778,-0.0778,-0.079,-0.079,-0.0789,-0.0789,-0.0808,-0.0809,-0.081,-0.082,0,0,-0.0813,-0.0813,0,0,0,0,0,0,0,0,-0.0712,-0.0716,-0.0756,-0.0757,-0.0758,-0.0779,-0.0762,-0.0791,-0.079,-0.0779,-0.0789,-0.0789,-0.0797,-0.0799,-0.0806,-0.0821,-0.0822,-0.0813,-0.0814,-0.0814,-0.0814,0,0,0,0,0,0,0,-0.071,-0.0715,-0.076,-0.0756,-0.0757,-0.0754,-0.0758,-0.0768,-0.0789,-0.078,-0.078,-0.0782,-0.0798,-0.0805,-0.0807,-0.0822,-0.0813,-0.0814,-0.0814,-0.0815,-0.0818,-0.0818,0,0,0,0,0,0,-0.0707,-0.0714,-0.0759,-0.0761,-0.0733,-0.0755,-0.076,-0.0773,-0.0789,-0.0792,-0.0783,-0.0783,-0.0804,-0.0806,-0.0808,-0.0775,-0.0814,-0.0815,-0.0815,-0.0819,-0.0818,-0.0817,0,0,0,0,0,0,-0.0705,-0.0711,-0.0758,-0.0736,-0.0742,-0.0757,-0.0771,-0.0774,-0.0777,-0.0792,-0.0794,-0.0783,-0.0804,-0.0806,-0.0812,-0.0778,-0.0815,-0.0816,-0.0819,-0.0818,-0.0818,-0.0739,0,0,0,0,0,0,-0.0704,-0.0711,-0.0719,-0.0737,-0.0743,-0.0759,-0.0771,-0.0774,-0.0779,-0.0779,-0.0793,-0.0795,-0.0804,-0.081,-0.0813,-0.078,-0.0817,-0.082,-0.0819,-0.0818,-0.0743,-0.0736,-0.0731,0,0,0,0,0,-0.0702,-0.0708,-0.0719,-0.0725,-0.0755,-0.0759,-0.0762,-0.0772,-0.0779,-0.0776,-0.0788,-0.0794,-0.0806,-0.0811,-0.0814,-0.078,-0.082,-0.0819,-0.0818,-0.0745,-0.0737,-0.0731,0,0,0,0,0,0,-0.067,-0.0711,-0.0723,-0.0738,-0.0745,-0.076,-0.076,-0.0769,-0.0778,-0.0779,-0.0795,-0.0797,-0.0786,-0.0803,-0.0809,-0.0781,-0.0811,-0.0811,-0.0755,-0.0748,-0.0742,-0.0729,-0.0818,0,0,0,0,0,-0.0671,-0.0696,-0.0718,-0.0726,-0.0732,-0.0747,-0.0751,-0.0757,-0.0767,-0.0771,-0.0777,-0.0786,-0.0785,-0.0783,-0.079,-0.0781,-0.0744,-0.0761,-0.0755,-0.0749,-0.0743,-0.0653,-0.0636,-0.0814,-0.0814,-0.0814,0,0,-0.0656,-0.0684,-0.0694,-0.0722,-0.0731,-0.0722,-0.0749,-0.075,-0.0736,-0.0772,-0.0755,-0.0767,-0.0781,-0.0764,-0.0759,-0.0772,-0.0676,-0.0748,-0.0743,-0.0739,-0.065,-0.0632,-0.0616,-0.0813,-0.0813,-0.0813,0,0,-0.0627,-0.0667,-0.067,-0.0678,-0.0694,-0.0705,-0.0703,-0.0715,-0.0716,-0.071,-0.0724,-0.0717,-0.0726,-0.0716,-0.0715,-0.0684,-0.065,-0.0688,-0.064,-0.0552,-0.0536,-0.0521,-0.0428,-0.0405,-0.068,-0.068,-0.068,0,-0.0603,-0.0618,-0.0664,-0.0659,-0.0657,-0.0692,-0.0671,-0.0677,-0.0685,-0.0674,-0.0694,-0.068,-0.0696,-0.0657,-0.065,-0.0665,-0.0609,-0.0662,-0.0539,-0.0524,-0.0511,-0.0419,-0.0395,-0.0676,-0.0677,-0.0677,-0.0678,0,-0.0567,-0.0579,-0.0577,-0.059,-0.0592,-0.0585,-0.0598,-0.0589,-0.0599,-0.0603,-0.0576,-0.0595,-0.0579,-0.0583,-0.0611,-0.0527,-0.0515,-0.0539,-0.0548,-0.0487,-0.0395,-0.0372,-0.0671,-0.0672,-0.0673,-0.0674,0,0,-0.0508,-0.0547,-0.0541,-0.0536,-0.0558,-0.0547,-0.0527,-0.0512,-0.0477,-0.0494,-0.044,-0.0458,-0.047,-0.0472,-0.0491,-0.0434,-0.0292,-0.0446,-0.0443,-0.0336,-0.0075,-0.0098,-0.0075,-0.0283,-0.0279,-0.0276,-0.004,0,-0.0459,-0.0439,-0.0473,-0.0436,-0.0426,-0.045,-0.0425,-0.0416,-0.0408,-0.0366,-0.0385,-0.0353,-0.0426,-0.0404,-0.036,-0.0305,-0.0231,-0.0353,-0.0167,-0.0161,-0.0174,-0.0049,-0.0031,0.0178,-0.0017,-0.0013,-0.0011,0,-0.0406,-0.0404,-0.0364,-0.0365,-0.036,-0.0339,-0.0292,-0.0273,-0.0242,-0.024,-0.0218,-0.0228,-0.0166,-0.0234,-0.0091,-0.0159,-0.0113,-0.0078,-0.0068,-0.0104,-0.0141,0.0078,0.0228,0.002,0.0026,0.0023,0.002,0,-0.0332,-0.0326,-0.0292,-0.029,-0.029,-0.0262,-0.0254,-0.0225,-0.0187,-0.0142,-0.0093,-0.0057,0.0012,0.0059,0.0102,0.0034,0.0278,0.02,0.0226,0.0226,0.0269,0.0264,0.0252,0.0319,0.0319,0.0318,0.0317,0,-0.0273,-0.0248,-0.0253,-0.023,-0.0175,-0.0197,-0.0125,-0.0114,-0.0065,0.0019,-0.0018,0.0095,0.0095,0.0209,0.0203,0.0313,0.0374,0.0275,0.0298,0.0294,0.029,0.0126,0.0002,0.0327,0.0325,0.0323,0.0322,0,-0.0206,-0.0212,-0.0171,-0.0153,-0.014,-0.0095,-0.0056,0.0003,0.0031,0.0158,0.0184,0.0275,0.044,0.044,0.0571,0.0485,0.048,0.0572,0.0562,0.0577,0.0335,0.0216,0.0299,0.022,0.0643,0.0644,0.0645,0,-0.0176,-0.0144,-0.01,-0.0067,-0.0059,-0.0008,0.0036,0.0055,0.0129,0.0297,0.0387,0.0563,0.0743,0.0893,0.0802,0.0823,0.0621,0.0762,0.06,0.0359,0.0246,0.0168,0.0087,0.0715,0.0717,0.0718,0.0719,0,-0.0112,-0.0091,-0.0062,0.001,0.0063,0.0128,0.0197,0.028,0.0354,0.0514,0.0782,0.0956,0.1068,0.1142,0.1067,0.1006,0.0601,0.078,0.0563,0.0332,0.0225,0.0147,0.0508,0.0728,0.0727,0.0727,0.0726,0.0726,-0.0064,-0.0031,0.0017,0.0081,0.0153,0.0273,0.0378,0.0511,0.0716,0.1019,0.1116,0.1462,0.1378,0.132,0.1133,0.072,0.072,0.0571,0.0469,0.0428,0.0271,0.0636,0.0834,0.0833,0.0833,0.0833,0.0832,0,-0.0011,0.0019,0.0081,0.0176,0.028,0.0306,0.0495,0.0665,0.099,0.1316,0.1614,0.1847,0.1647,0.1342,0.0815,0.0469,0.0311,0.0263,0.0138,0.0083,0.0463,0.0373,0.0439,0.0439,0.0439,0.0439,0.044,0.044,0.0021,0.0074,0.0098,0.0266,0.0353,0.056,0.0702,0.1012,0.13,0.1827,0.2146,0.2364,0.2152,0.1034,0.0275,0.0091,-0.0217,-0.0206,-0.0373,-0.0183,-0.0164,-0.0147,-0.0264,-0.0332,-0.0333,-0.0709,-0.0714,-0.0717]}],[{"header":{"parameterUnit":"m.s-1","parameterCategory":2,"la1":30.2991,"la2":30.254,"lo1":-89.0895,"lo2":-89.0444,"dy":0.0017,"dx":0.0017,"nx":28,"ny":28,"refTime":"2025-11-18T09:00:00:Z","depth":"2","parameterNumber":2,"parameterNumberName":"U-component_of_CURRENTS"},"data":[0,0,0,0,0,0,0,0,0,0,0,0,0,0,0,0,0,0,0,0,0,0,0,0,0,0,0,0,0,0,0,0,0,0,0,0,0,0,0,0,0,0,0,0,0,0,0,0,0,0,0,0,0,0,0,0,0,0,0.2302,0.2302,0,0.2377,0.2379,0.238,0.227,0.2265,0.2261,0.2257,0.2212,0.2215,0.2218,0,0,0,0,0,0,0,0,0,0,0,0,0,0.2262,0.2263,0.2302,0.2302,0.2303,0.2377,0.2379,0.2381,0.2271,0.2265,0.226,0.2254,0.2211,0.2214,0.2218,0,0,0,0,0,0,0,0,0,0,0,0,0,0.2309,0.2263,0.2302,0.2251,0.2247,0.2377,0.2379,0.2381,0.2272,0.2265,0.2258,0.2252,0.2209,0.2214,0.2218,0.2384,0,0,0.2232,0.2234,0,0,0,0,0,0,0,0,0.2306,0.2312,0.2259,0.2255,0.225,0.2301,0.2348,0.2373,0.2274,0.227,0.2256,0.2249,0.2231,0.2233,0.2275,0.2381,0.2379,0.2233,0.2236,0.2238,0.2239,0,0,0,0,0,0,0,0.2303,0.2309,0.2339,0.2259,0.2254,0.2292,0.2291,0.2354,0.2291,0.227,0.226,0.2259,0.2227,0.2271,0.2272,0.2379,0.2233,0.2237,0.224,0.2241,0.2429,0.2431,0,0,0,0,0,0,0.2277,0.2305,0.2337,0.2341,0.2254,0.2297,0.2296,0.2298,0.2293,0.2285,0.2265,0.2254,0.2266,0.2267,0.227,0.2274,0.2238,0.2242,0.2244,0.2426,0.2429,0.2431,0,0,0,0,0,0,0.2276,0.2279,0.2334,0.2318,0.2326,0.2303,0.2308,0.2302,0.2331,0.2289,0.2278,0.2294,0.2261,0.2263,0.2279,0.2277,0.2244,0.2248,0.2424,0.2427,0.243,0.2405,0,0,0,0,0,0,0.2275,0.2279,0.2276,0.2317,0.2326,0.2353,0.2313,0.2309,0.2337,0.2323,0.2313,0.2301,0.2256,0.2272,0.2283,0.2283,0.2252,0.2421,0.2425,0.2429,0.2403,0.2407,0.241,0,0,0,0,0,0.2273,0.2275,0.2276,0.2279,0.2321,0.2352,0.2361,0.2328,0.2346,0.2338,0.2335,0.2301,0.2305,0.2279,0.2291,0.2292,0.2419,0.2424,0.2429,0.2401,0.2406,0.241,0,0,0,0,0,0,0.2252,0.2266,0.2266,0.2271,0.2287,0.2328,0.2334,0.2362,0.2376,0.237,0.2346,0.2336,0.2333,0.2356,0.2327,0.2364,0.2355,0.2362,0.2329,0.2334,0.2338,0.2391,0.2255,0,0,0,0,0,0.2255,0.2273,0.2281,0.23,0.2299,0.2346,0.2365,0.2361,0.2379,0.2381,0.2379,0.2388,0.2384,0.2386,0.2383,0.2448,0.2486,0.2457,0.246,0.2463,0.2519,0.256,0.2572,0.2448,0.2448,0.2448,0,0,0.2253,0.2275,0.2278,0.23,0.2323,0.2335,0.2339,0.2371,0.2397,0.2382,0.2415,0.2402,0.2403,0.2408,0.2415,0.2416,0.2516,0.2469,0.247,0.2527,0.2567,0.2578,0.2589,0.2451,0.2451,0.245,0,0,0.2267,0.2279,0.2283,0.2299,0.2327,0.2352,0.2367,0.241,0.2418,0.2476,0.2441,0.2442,0.2485,0.2452,0.2453,0.2514,0.2524,0.2512,0.2585,0.2621,0.2631,0.2641,0.2685,0.2698,0.2525,0.2525,0.2525,0,0.2249,0.2271,0.2291,0.2303,0.2319,0.2361,0.2372,0.2414,0.2462,0.2494,0.2463,0.2523,0.2505,0.2518,0.252,0.2517,0.2557,0.2548,0.2623,0.2634,0.2644,0.2687,0.2702,0.2524,0.2524,0.2525,0.2525,0,0.2272,0.2275,0.2287,0.2314,0.2338,0.2362,0.2397,0.2435,0.2482,0.2529,0.2562,0.2547,0.2584,0.2563,0.2569,0.2629,0.2638,0.2603,0.26,0.2654,0.2696,0.2713,0.2523,0.2524,0.2524,0.2524,0,0,0.2231,0.2282,0.2277,0.2285,0.2345,0.2362,0.2421,0.2474,0.2524,0.2568,0.2636,0.2635,0.2663,0.2674,0.2654,0.2701,0.2784,0.2713,0.2714,0.2739,0.2892,0.2789,0.2797,0.276,0.2763,0.2766,0.2883,0,0.2223,0.2235,0.2282,0.2302,0.2298,0.2365,0.2412,0.2483,0.2548,0.2622,0.2656,0.2702,0.2692,0.2706,0.2755,0.278,0.2833,0.2758,0.2856,0.2861,0.2747,0.2815,0.2557,0.2632,0.2899,0.2902,0.2904,0,0.2197,0.2218,0.2234,0.2278,0.2284,0.2326,0.2411,0.2468,0.2591,0.2643,0.2724,0.2772,0.2863,0.2833,0.2941,0.2901,0.2933,0.2944,0.2947,0.2888,0.279,0.263,0.2652,0.2932,0.293,0.2928,0.2926,0,0.2134,0.2163,0.2185,0.2204,0.2278,0.2319,0.237,0.2482,0.2554,0.2687,0.2752,0.2853,0.2933,0.2981,0.3042,0.3015,0.3155,0.3091,0.3025,0.3018,0.2843,0.2813,0.3186,0.3186,0.3185,0.3185,0.3185,0,0.2088,0.209,0.2159,0.2174,0.2208,0.2284,0.2366,0.2422,0.2563,0.2645,0.2772,0.2857,0.2991,0.3084,0.3095,0.3125,0.3194,0.3084,0.3054,0.2824,0.2793,0.3091,0.3079,0.3189,0.3189,0.3188,0.3187,0,0.2011,0.2055,0.2085,0.2165,0.2183,0.2224,0.2355,0.2405,0.2543,0.2655,0.2713,0.2938,0.3055,0.3126,0.3237,0.3197,0.3207,0.3191,0.2923,0.2859,0.3039,0.3025,0.315,0.3148,0.3146,0.3144,0.3143,0,0.1973,0.1988,0.2067,0.2085,0.213,0.2203,0.2237,0.2378,0.2453,0.2675,0.2719,0.2932,0.3025,0.3159,0.3133,0.3123,0.3196,0.289,0.2779,0.3085,0.3043,0.3031,0.3019,0.2536,0.253,0.2525,0.2521,0,0.1929,0.1978,0.2015,0.2033,0.2073,0.2134,0.2209,0.226,0.2424,0.251,0.2682,0.2793,0.2944,0.2889,0.2901,0.2847,0.2862,0.2785,0.3189,0.2572,0.2511,0.2467,0.2476,0.2475,0.248,0.2483,0.2486,0.2487,0.1915,0.1922,0.1968,0.1995,0.2037,0.2075,0.2069,0.2144,0.2237,0.232,0.2522,0.2563,0.2652,0.2559,0.2481,0.2431,0.2624,0.2499,0.2513,0.2533,0.2427,0.2365,0.2284,0.2287,0.229,0.2292,0.2295,0,0.1872,0.1895,0.1904,0.1929,0.1918,0.1998,0.2044,0.1995,0.2003,0.2107,0.2197,0.205,0.2032,0.2114,0.1964,0.1961,0.192,0.1887,0.1818,0.1865,0.1906,0.1766,0.1449,0.1446,0.1444,0.1442,0,0,0.1858,0.185,0.1852,0.1824,0.1838,0.1814,0.1823,0.1731,0.1751,0.1712,0.1725,0.1892,0.2018,0.1687,0.1655,0.1536,0.1679,0.1466,0.2144,0.2107,0.2145,0.2261,0.2099,0,0,0,0,0]},{"header":{"parameterUnit":"m.s-1","parameterCategory":2,"la1":30.2991,"la2":30.254,"lo1":-89.0895,"lo2":-89.0444,"dy":0.0017,"dx":0.0017,"nx":28,"ny":28,"refTime":"2025-11-18T09:00:00:Z","depth":"2","parameterNumber":3,"parameterNumberName":"V-component_of_CURRENTS"},"data":[0,0,0,0,0,0,0,0,0,0,0,0,0,0,0,0,0,0,0,0,0,0,0,0,0,0,0,0,0,0,0,0,0,0,0,0,0,0,0,0,0,0,0,0,0,0,0,0,0,0,0,0,0,0,0,0,0,0,0.0338,0.0339,0,0.0307,0.0306,0.0305,0.0276,0.0277,0.0277,0.0278,0.0211,0.0209,0.0207,0,0,0,0,0,0,0,0,0,0,0,0,0,0.0293,0.0294,0.0338,0.0339,0.0339,0.0308,0.0306,0.0305,0.0276,0.0277,0.0277,0.0278,0.0212,0.021,0.0207,0,0,0,0,0,0,0,0,0,0,0,0,0,0.0285,0.0294,0.0338,0.0327,0.0326,0.0308,0.0306,0.0305,0.0276,0.0277,0.0277,0.0278,0.0213,0.021,0.0207,0.0175,0,0,0.0197,0.0196,0,0,0,0,0,0,0,0,0.0285,0.0286,0.0328,0.0328,0.0327,0.0304,0.0267,0.0263,0.0276,0.0286,0.0278,0.0278,0.0244,0.0238,0.022,0.0172,0.017,0.0197,0.0195,0.0193,0.0192,0,0,0,0,0,0,0,0.0286,0.0286,0.0318,0.0329,0.0328,0.0297,0.0296,0.0265,0.0255,0.0286,0.0286,0.0295,0.0242,0.0223,0.0218,0.0169,0.0197,0.0194,0.0192,0.0191,0.0097,0.0097,0,0,0,0,0,0,0.031,0.0287,0.0319,0.0318,0.0316,0.0298,0.0297,0.0304,0.0256,0.0252,0.0294,0.0294,0.0228,0.0222,0.0216,0.0221,0.0193,0.019,0.0189,0.0098,0.0097,0.0097,0,0,0,0,0,0,0.0309,0.0313,0.032,0.0308,0.0308,0.03,0.0307,0.0303,0.0289,0.0265,0.0259,0.0287,0.0228,0.022,0.0198,0.0217,0.0189,0.0186,0.0099,0.0098,0.0097,0.0202,0,0,0,0,0,0,0.0308,0.0313,0.0321,0.031,0.031,0.0328,0.0307,0.0302,0.0298,0.0296,0.0256,0.025,0.0228,0.0203,0.0195,0.0212,0.0184,0.0099,0.0098,0.0097,0.02,0.0205,0.021,0,0,0,0,0,0.0306,0.0331,0.0321,0.0325,0.0323,0.033,0.0326,0.0316,0.0297,0.0301,0.0269,0.0252,0.019,0.02,0.0191,0.0207,0.01,0.0098,0.0097,0.0197,0.0204,0.021,0,0,0,0,0,0,0.0323,0.0331,0.032,0.0347,0.0344,0.0329,0.0333,0.0317,0.0291,0.0285,0.0248,0.024,0.0227,0.0191,0.0203,0.0171,0.014,0.0137,0.0219,0.0225,0.023,0.024,0.0181,0,0,0,0,0,0.0329,0.034,0.0344,0.036,0.0363,0.034,0.0339,0.0332,0.0313,0.0301,0.0274,0.0236,0.021,0.0199,0.0168,0.0152,0.0115,0.015,0.0156,0.0161,0.0159,0.0118,0.0121,0.0092,0.0092,0.0092,0,0,0.0337,0.0345,0.0349,0.0363,0.0352,0.0365,0.0339,0.0345,0.035,0.0298,0.0286,0.0254,0.0207,0.0197,0.0187,0.0174,0.015,0.0159,0.0165,0.0159,0.0117,0.012,0.0123,0.0091,0.0092,0.0092,0,0,0.037,0.0366,0.0389,0.0389,0.0394,0.0384,0.039,0.0376,0.0365,0.0351,0.0316,0.0294,0.0248,0.023,0.0211,0.0217,0.0178,0.0203,0.0246,0.0208,0.0211,0.0213,0.0184,0.0183,0.021,0.021,0.021,0,0.0383,0.0409,0.0396,0.0419,0.0427,0.0397,0.0422,0.0405,0.0385,0.0386,0.036,0.03,0.0263,0.0258,0.026,0.0233,0.0204,0.0238,0.0219,0.022,0.022,0.019,0.0187,0.0215,0.0214,0.0214,0.0213,0,0.0425,0.0448,0.0461,0.0476,0.0481,0.0496,0.0484,0.0481,0.0457,0.0445,0.043,0.0373,0.0344,0.0327,0.0294,0.0284,0.0262,0.0234,0.0215,0.023,0.0196,0.0192,0.0222,0.022,0.0219,0.0217,0,0,0.0453,0.0488,0.0491,0.0514,0.0512,0.0527,0.0534,0.0545,0.0565,0.052,0.0539,0.0475,0.0448,0.042,0.0379,0.034,0.0319,0.0292,0.0288,0.0286,0.0242,0.0214,0.0205,0.0293,0.0293,0.0292,0.0225,0,0.0491,0.0558,0.0554,0.0601,0.0634,0.0611,0.0628,0.0629,0.0617,0.0627,0.0566,0.0562,0.0484,0.0481,0.0427,0.0347,0.0307,0.0339,0.0207,0.0204,0.0195,0.0199,0.0212,0.0152,0.022,0.0219,0.0219,0,0.0529,0.0574,0.0639,0.0686,0.0696,0.0714,0.0744,0.0755,0.0755,0.0751,0.0725,0.0681,0.0625,0.0554,0.0415,0.044,0.0346,0.0273,0.0268,0.0199,0.0166,0.0141,0.014,0.021,0.021,0.0211,0.0212,0,0.0566,0.0629,0.0688,0.0699,0.0746,0.0768,0.0785,0.0798,0.083,0.0834,0.0858,0.0777,0.0752,0.0611,0.0448,0.0434,0.0292,0.0257,0.0144,0.0141,0.0102,0.0097,0.0157,0.0157,0.0157,0.0157,0.0157,0,0.061,0.0655,0.0715,0.0745,0.0823,0.0823,0.0892,0.0907,0.0938,0.0991,0.0925,0.0952,0.0762,0.066,0.049,0.0304,0.0321,0.0149,0.0119,0.0139,0.0138,0.014,0.0139,0.0155,0.0155,0.0156,0.0156,0,0.064,0.0677,0.075,0.0816,0.0845,0.0896,0.0971,0.1027,0.1042,0.1107,0.1115,0.1082,0.0952,0.075,0.0539,0.0376,0.0192,0.0124,0.0164,0.014,0.0057,0.0062,-0.0011,-0.0013,-0.0014,-0.0015,-0.0016,0,0.0665,0.0708,0.0804,0.086,0.0893,0.0971,0.1039,0.1083,0.1152,0.119,0.1242,0.1156,0.111,0.08,0.0511,0.0219,0.0189,0.0045,0.0007,0.006,0.0038,0.0045,0.0052,0.0002,0.0002,0.0001,0.0001,0,0.071,0.0737,0.0798,0.0919,0.1003,0.1109,0.1205,0.1282,0.1331,0.1372,0.1427,0.1387,0.1116,0.0844,0.0459,0.026,0.0086,0.0023,0.0067,0.0044,0.0066,0.0047,0.0054,-0.0005,-0.0004,-0.0004,-0.0004,-0.0003,0.0732,0.0785,0.0868,0.0984,0.109,0.1238,0.1334,0.1431,0.1537,0.1581,0.1543,0.1445,0.1166,0.0655,0.037,0.0058,0.0057,-0.0074,-0.007,-0.0065,-0.0051,-0.0032,-0.0118,-0.0118,-0.0118,-0.0118,-0.0119,0,0.0752,0.0826,0.0935,0.1087,0.1216,0.1264,0.1444,0.152,0.1645,0.1625,0.1613,0.1277,0.0994,0.0675,0.0216,-0.0051,-0.0065,-0.0139,-0.0092,-0.0086,-0.0081,-0.0065,-0.0138,-0.0138,-0.0139,-0.0139,0,0,0.077,0.0864,0.0935,0.1164,0.1277,0.1456,0.1562,0.1643,0.1666,0.1623,0.1516,0.1389,0.1026,0.0689,0.0352,0.0113,0.007,0.0055,0.0091,0.0192,0.0201,-0.003,0.0002,0,0,0,0,0]}],[{"header":{"parameterUnit":"m.s-1","parameterCategory":2,"la1":30.2991,"la2":30.254,"lo1":-89.0895,"lo2":-89.0444,"dy":0.0017,"dx":0.0017,"nx":28,"ny":28,"refTime":"2025-11-18T09:00:00:Z","depth":"4","parameterNumber":2,"parameterNumberName":"U-component_of_CURRENTS"},"data":[0,0,0,0,0,0,0,0,0,0,0,0,0,0,0,0,0,0,0,0,0,0,0,0,0,0,0,0,0,0,0,0,0,0,0,0,0,0,0,0,0,0,0,0,0,0,0,0,0,0,0,0,0,0,0,0,0,0,0.1043,0.1043,0,0.1037,0.1036,0.1036,0.1073,0.1074,0.1075,0.1076,0.1168,0.1169,0.117,0,0,0,0,0,0,0,0,0,0,0,0,0,0.101,0.1011,0.1043,0.1043,0.1043,0.1037,0.1036,0.1036,0.1072,0.1074,0.1075,0.1076,0.1167,0.1169,0.1171,0,0,0,0,0,0,0,0,0,0,0,0,0,0.1015,0.1011,0.1043,0.1061,0.1063,0.1037,0.1036,0.1036,0.1072,0.1074,0.1075,0.1077,0.1167,0.1169,0.1171,0.1149,0,0,0.1177,0.1178,0,0,0,0,0,0,0,0,0.1015,0.1016,0.1058,0.106,0.1062,0.1058,0.1058,0.1079,0.1072,0.1067,0.1076,0.1078,0.114,0.1144,0.1136,0.1154,0.1157,0.1177,0.1179,0.1179,0.118,0,0,0,0,0,0,0,0.1014,0.1016,0.1039,0.1058,0.106,0.1043,0.1047,0.1062,0.1095,0.1068,0.1071,0.1071,0.1141,0.1134,0.1139,0.1159,0.1177,0.1179,0.118,0.1181,0.1291,0.1293,0,0,0,0,0,0,0.102,0.1016,0.1039,0.1039,0.1043,0.1043,0.1046,0.1057,0.1093,0.1099,0.107,0.1073,0.1129,0.1136,0.1142,0.122,0.1179,0.1181,0.1183,0.129,0.1292,0.1293,0,0,0,0,0,0,0.1019,0.1022,0.104,0.1028,0.1029,0.1042,0.1053,0.1056,0.1078,0.1093,0.1102,0.1093,0.1131,0.1139,0.1191,0.122,0.1182,0.1184,0.1288,0.129,0.1293,0.1311,0,0,0,0,0,0,0.1018,0.1022,0.1047,0.1028,0.103,0.1051,0.1051,0.1054,0.1074,0.1079,0.1115,0.1124,0.1133,0.1188,0.1193,0.1223,0.1186,0.1285,0.1289,0.1292,0.1309,0.1314,0.1319,0,0,0,0,0,0.1017,0.1028,0.1048,0.1052,0.1059,0.1052,0.1052,0.1065,0.1074,0.109,0.112,0.1124,0.1213,0.1191,0.1197,0.1227,0.1284,0.1288,0.1291,0.1306,0.1313,0.1319,0,0,0,0,0,0,0.1018,0.1033,0.1054,0.107,0.1079,0.106,0.1074,0.1077,0.1107,0.1128,0.1138,0.1149,0.1207,0.1216,0.1192,0.1271,0.1252,0.1257,0.1261,0.1268,0.1273,0.1286,0.1187,0,0,0,0,0,0.1032,0.1051,0.106,0.1074,0.1086,0.1086,0.1091,0.1103,0.1116,0.1131,0.1156,0.119,0.1219,0.1244,0.1272,0.1308,0.132,0.1336,0.1341,0.1345,0.1362,0.1409,0.1419,0.1306,0.1306,0.1306,0,0,0.1034,0.1045,0.1057,0.1077,0.1087,0.1104,0.1094,0.1113,0.1132,0.1138,0.1187,0.1211,0.1234,0.1281,0.1308,0.1297,0.138,0.135,0.1353,0.1368,0.1414,0.1425,0.1434,0.1308,0.1308,0.1308,0,0,0.1033,0.1064,0.1084,0.1099,0.1127,0.1129,0.1143,0.1154,0.1175,0.1215,0.1229,0.1274,0.1314,0.1337,0.135,0.1402,0.1407,0.1416,0.1451,0.1496,0.1506,0.1514,0.1521,0.153,0.1417,0.1418,0.1418,0,0.1049,0.1066,0.1086,0.1109,0.1122,0.1146,0.1167,0.1184,0.1213,0.1237,0.1247,0.1321,0.134,0.1388,0.1411,0.1414,0.1431,0.1419,0.1502,0.1511,0.1519,0.1524,0.1534,0.1419,0.1419,0.1419,0.1418,0,0.1053,0.1085,0.1093,0.1138,0.1157,0.1176,0.1207,0.1245,0.1275,0.1291,0.136,0.1387,0.1433,0.1444,0.1444,0.1514,0.1502,0.15,0.148,0.1531,0.1534,0.1543,0.1421,0.142,0.142,0.142,0,0,0.1048,0.1092,0.1102,0.1125,0.1177,0.1184,0.1239,0.1282,0.1323,0.1371,0.1415,0.1471,0.1496,0.1515,0.1524,0.1565,0.1625,0.1565,0.1567,0.1562,0.1708,0.1598,0.1598,0.1643,0.1645,0.1647,0.1676,0,0.1055,0.1085,0.1113,0.1153,0.1172,0.1221,0.126,0.1311,0.1363,0.1418,0.1461,0.1515,0.1517,0.155,0.1592,0.1635,0.1658,0.1617,0.1669,0.167,0.1559,0.1608,0.1655,0.1684,0.1686,0.1687,0.1689,0,0.1054,0.1074,0.1107,0.1157,0.1174,0.1208,0.1285,0.1329,0.1416,0.146,0.1532,0.1566,0.1644,0.1629,0.1727,0.1707,0.1712,0.1728,0.1729,0.1632,0.158,0.163,0.1706,0.1705,0.1704,0.1702,0.1701,0,0.1015,0.107,0.1091,0.1108,0.1172,0.121,0.1258,0.1347,0.1397,0.1501,0.1554,0.1638,0.1695,0.1744,0.1791,0.1772,0.1879,0.1848,0.1741,0.1731,0.1811,0.1801,0.1894,0.1894,0.1894,0.1894,0.1894,0,0.0991,0.1014,0.1078,0.1089,0.1131,0.1192,0.126,0.1327,0.1428,0.1492,0.1579,0.1633,0.1735,0.18,0.1819,0.1822,0.1904,0.1759,0.1743,0.1814,0.1805,0.1815,0.1806,0.1895,0.1895,0.1895,0.1894,0,0.0939,0.098,0.1011,0.1084,0.1112,0.1148,0.1257,0.1301,0.1418,0.1508,0.1547,0.1663,0.1752,0.1822,0.1901,0.1847,0.1864,0.1829,0.1897,0.1882,0.1669,0.166,0.1707,0.1704,0.1701,0.1698,0.1696,0,0.0905,0.0916,0.0998,0.1019,0.1057,0.1123,0.1163,0.1283,0.1336,0.1509,0.1534,0.166,0.1724,0.1753,0.1824,0.1846,0.1815,0.1791,0.1729,0.1675,0.1656,0.1652,0.1647,0.1692,0.1691,0.169,0.169,0,0.0847,0.0892,0.0921,0.096,0.1004,0.1038,0.1114,0.1149,0.1291,0.1416,0.1501,0.1551,0.1632,0.1686,0.1719,0.1725,0.1802,0.176,0.1765,0.1707,0.1657,0.164,0.1639,0.168,0.1681,0.1682,0.1683,0,0.0812,0.0819,0.0863,0.0886,0.0931,0.0931,0.0988,0.1055,0.1128,0.1337,0.136,0.1499,0.1622,0.1621,0.1656,0.1663,0.162,0.1547,0.1561,0.1573,0.1516,0.1433,0.1385,0,0,0,0,0,0.0772,0.0764,0.0778,0.0794,0.0831,0.085,0.0936,0.0998,0.1154,0.1184,0.1278,0.1354,0.142,0.1478,0.1456,0.156,0.1603,0.1522,0.152,0.1625,0.1636,0.1582,0,0,0,0,0,0,0.0742,0.076,0.0747,0.0702,0.0698,0.0719,0.0766,0.0868,0.0898,0.1077,0.1124,0.1259,0.134,0.143,0.1429,0.1446,0.1411,0.1614,0.161,0.1618,0.1629,0.1638,0.1586,0,0,0,0,0]},{"header":{"parameterUnit":"m.s-1","parameterCategory":2,"la1":30.2991,"la2":30.254,"lo1":-89.0895,"lo2":-89.0444,"dy":0.0017,"dx":0.0017,"nx":28,"ny":28,"refTime":"2025-11-18T09:00:00:Z","depth":"4","parameterNumber":3,"parameterNumberName":"V-component_of_CURRENTS"},"data":[0,0,0,0,0,0,0,0,0,0,0,0,0,0,0,0,0,0,0,0,0,0,0,0,0,0,0,0,0,0,0,0,0,0,0,0,0,0,0,0,0,0,0,0,0,0,0,0,0,0,0,0,0,0,0,0,0,0,0.0335,0.0335,0,0.0345,0.0345,0.0345,0.0337,0.0336,0.0336,0.0336,0.0287,0.0286,0.0285,0,0,0,0,0,0,0,0,0,0,0,0,0,0.0306,0.0307,0.0335,0.0335,0.0336,0.0345,0.0345,0.0345,0.0337,0.0336,0.0336,0.0336,0.0287,0.0286,0.0284,0,0,0,0,0,0,0,0,0,0,0,0,0,0.0316,0.0307,0.0335,0.0334,0.0334,0.0345,0.0345,0.0345,0.0337,0.0336,0.0336,0.0336,0.0288,0.0286,0.0284,0.0278,0,0,0.0279,0.0278,0,0,0,0,0,0,0,0,0.0315,0.0316,0.0334,0.0334,0.0334,0.0341,0.0317,0.032,0.0337,0.0334,0.0336,0.0336,0.0301,0.0298,0.0299,0.0276,0.0274,0.0279,0.0278,0.0277,0.0277,0,0,0,0,0,0,0,0.0314,0.0316,0.0337,0.0334,0.0335,0.0332,0.0333,0.0317,0.0316,0.0334,0.0334,0.0338,0.03,0.03,0.0297,0.0273,0.0279,0.0277,0.0276,0.0276,0.0237,0.0237,0,0,0,0,0,0,0.0318,0.0316,0.0337,0.0337,0.0326,0.0333,0.0334,0.0337,0.0317,0.0315,0.0338,0.0338,0.0303,0.0299,0.0295,0.0294,0.0277,0.0275,0.0274,0.0237,0.0237,0.0237,0,0,0,0,0,0,0.0317,0.032,0.0336,0.0328,0.033,0.0334,0.0338,0.0338,0.0344,0.0322,0.0318,0.0345,0.0303,0.0298,0.0284,0.0292,0.0275,0.0273,0.0237,0.0237,0.0237,0.0286,0,0,0,0,0,0,0.0316,0.0319,0.0329,0.0328,0.0331,0.0347,0.0338,0.0338,0.0347,0.0347,0.0326,0.0321,0.0302,0.0287,0.0282,0.0289,0.0272,0.0237,0.0237,0.0237,0.0285,0.0288,0.0291,0,0,0,0,0,0.0315,0.033,0.0329,0.0332,0.0342,0.0348,0.0349,0.0349,0.0348,0.0352,0.0337,0.0322,0.0283,0.0285,0.028,0.0286,0.0237,0.0237,0.0237,0.0283,0.0288,0.0291,0,0,0,0,0,0,0.0328,0.0331,0.033,0.0346,0.0348,0.0347,0.0358,0.0355,0.0348,0.0348,0.0324,0.0317,0.0307,0.0289,0.0291,0.0274,0.0257,0.0256,0.0294,0.0298,0.0301,0.0309,0.027,0,0,0,0,0,0.0334,0.0342,0.0344,0.0357,0.0361,0.036,0.0365,0.0364,0.0357,0.0355,0.0343,0.0323,0.0303,0.0295,0.0276,0.0269,0.0233,0.0267,0.0271,0.0274,0.0275,0.0229,0.0228,0.0237,0.0237,0.0237,0,0,0.0343,0.0346,0.0352,0.036,0.0363,0.0371,0.0362,0.0373,0.038,0.0349,0.0356,0.0335,0.0303,0.0294,0.0288,0.028,0.0251,0.0274,0.0276,0.0277,0.0229,0.0228,0.0227,0.0237,0.0237,0.0237,0,0,0.0362,0.0368,0.038,0.0383,0.0391,0.0388,0.0393,0.0397,0.0398,0.0399,0.0376,0.0359,0.0339,0.0316,0.0301,0.0308,0.0269,0.0304,0.0328,0.0284,0.0283,0.0281,0.023,0.0224,0.0307,0.0307,0.0307,0,0.0371,0.0389,0.0385,0.0397,0.0407,0.0397,0.0413,0.0412,0.041,0.0413,0.0406,0.0372,0.0347,0.0326,0.033,0.0316,0.0282,0.0319,0.0288,0.0286,0.0284,0.0232,0.0225,0.0309,0.0309,0.0309,0.0308,0,0.0397,0.0414,0.0423,0.0432,0.0438,0.0452,0.0449,0.0457,0.0457,0.0452,0.0442,0.0408,0.0387,0.0376,0.0356,0.0332,0.0309,0.0297,0.0281,0.0286,0.0231,0.0222,0.0313,0.0312,0.0311,0.031,0,0,0.0404,0.0436,0.0439,0.0458,0.0461,0.0473,0.0481,0.0488,0.0501,0.0486,0.049,0.0455,0.0439,0.0419,0.039,0.0353,0.0307,0.0325,0.0322,0.028,0.0201,0.0188,0.0176,0.0291,0.029,0.0289,0.0167,0,0.0424,0.0466,0.0469,0.0504,0.0526,0.0522,0.0534,0.0536,0.0533,0.0533,0.0492,0.0482,0.0453,0.0447,0.0404,0.0337,0.0287,0.034,0.0198,0.0194,0.0186,0.0167,0.0285,0.016,0.0158,0.0157,0.0156,0,0.0442,0.0472,0.0517,0.0556,0.0565,0.0583,0.0606,0.0617,0.0602,0.0596,0.0571,0.0538,0.0488,0.046,0.0339,0.0376,0.0291,0.023,0.0224,0.0189,0.0165,0.0154,0.0139,0.014,0.0142,0.0143,0.0144,0,0.0455,0.0501,0.0546,0.0558,0.0596,0.062,0.064,0.0643,0.0662,0.0639,0.064,0.0571,0.054,0.0436,0.0317,0.0326,0.017,0.0163,0.0063,0.0061,0.0088,0.0091,0.0058,0.0058,0.0059,0.0059,0.0059,0,0.047,0.0506,0.0565,0.059,0.0647,0.066,0.0711,0.0714,0.0721,0.0738,0.0681,0.0661,0.0532,0.0433,0.0318,0.0165,0.0165,0.0059,0.0028,0.011,0.0117,0.0081,0.0085,0.0054,0.0055,0.0056,0.0057,0,0.0474,0.051,0.0567,0.063,0.0657,0.07,0.0768,0.0801,0.0799,0.0815,0.0809,0.0722,0.059,0.0448,0.0264,0.0172,0.0025,-0.0037,0.0054,0.0031,-0.0057,-0.0049,-0.0155,-0.0157,-0.0158,-0.0159,-0.016,0,0.0482,0.0515,0.0602,0.0644,0.0681,0.0753,0.0802,0.0835,0.0865,0.0848,0.0848,0.0735,0.0656,0.0389,0.0232,-0.0001,-0.0034,-0.0112,-0.0078,-0.0059,-0.008,-0.0069,-0.006,-0.0162,-0.0162,-0.0163,-0.0163,0,0.0497,0.053,0.0578,0.0669,0.0737,0.0811,0.0883,0.091,0.0937,0.0939,0.0873,0.074,0.0579,0.0379,0.0193,0.0029,-0.0054,-0.0126,-0.0124,-0.0093,-0.0069,-0.0085,-0.0074,-0.0167,-0.0167,-0.0166,-0.0166,0,0.0506,0.0539,0.0606,0.0684,0.0771,0.0844,0.0885,0.0918,0.0946,0.0932,0.0902,0.0738,0.0644,0.0391,0.0222,0.006,0.0022,-0.002,-0.0025,-0.0022,0.0059,0.0112,0.0035,0,0,0,0,0,0.0508,0.0546,0.062,0.0706,0.0792,0.0846,0.0925,0.0956,0.0988,0.0949,0.093,0.078,0.0527,0.0411,0.0245,0.019,-0.0011,-0.001,-0.0062,-0.0192,-0.0186,-0.0115,0,0,0,0,0,0,0.0509,0.0568,0.0611,0.0712,0.0775,0.0873,0.0925,0.0948,0.0924,0.0926,0.0789,0.0739,0.0486,0.062,0.024,0.0191,0.0135,-0.0124,-0.0128,-0.0194,-0.019,-0.0186,-0.0111,0,0,0,0,0]}]]